Regional Weather Roundup
Issued by NWS Lake Charles, LA

Home | Current Version | Previous Version | Text Only | Print | Product List | Glossary On
Versions: 1 2 3 4 5 6 7 8 9 10 11 12 13 14 15 16 17 18 19 20 21 22 23 24 25 26 27
000
ASUS44 KLCH 231510
RWRLCH
REGIONAL WEATHER ROUNDUP
NATIONAL WEATHER SERVICE LAKE CHARLES LA
1000 AM CDT MON OCT 23 2017

Note: "fair" indicates few or no clouds below 12,000 feet with no
significant weather and/or obstructions to visibility.


ACROSS SOUTHEAST TEXAS

CITY           SKY/WX    TMP DP  RH WIND       PRES   REMARKS
BEAUMONT       SUNNY     65  49  56 N6        30.13R
BEAUMONT CITY  FAIR      64  53  67 CALM      30.15R
ORANGE         SUNNY     63  54  72 MISG      30.15R
JASPER         SUNNY     61  57  87 N3        30.16S
$$

ACROSS CENTRAL LOUISIANA

CITY           SKY/WX    TMP DP  RH WIND       PRES   REMARKS
LEESVILLE      SUNNY     61  51  70 N8        30.12F
FULLERTON      FAIR      63  51  65 CALM      30.11S
ALEXANDRIA INT SUNNY     60  51  72 N5        30.12R
ESLER FIELD    SUNNY     62  50  64 VRB5      30.13S
DERIDDER       FAIR      62  53  74 N5        30.15S
OAKDALE        SUNNY     62  49  62 N10       30.13S
OPELOUSAS      FAIR      59  52  78 N6        30.13R
$$

ACROSS SOUTHWEST AND SOUTH CENTRAL LOUISIANA

CITY           SKY/WX    TMP DP  RH WIND       PRES   REMARKS
SULPHUR        SUNNY     64  51  63 N6        30.14S
LAKE CHARLES   SUNNY     65  49  56 N8        30.13R
CHENNAULT INT  NOT AVBL
CAMERON PHI    SUNNY     64  48  55 N14       30.12R
DEQUINCY       FAIR      59  53  79 N3        30.14S
JENNINGS       FAIR      60  50  69 N7        30.13S
LAFAYETTE      SUNNY     62  54  74 N7        30.12R
NEW IBERIA     SUNNY     62  54  74 N9        30.12R
ABBEVILLE      FAIR      61  55  82 N9        30.12S
PATTERSON      CLOUDY    62  58  86 NW7       30.12R
SALT POINT       N/A     62  57  83 N9        30.10R
$$

SELECTED SITES ACROSS THE REGION

CITY           SKY/WX    TMP DP  RH WIND       PRES   REMARKS
HOUSTON BUSH   SUNNY     64  53  67 CALM      30.16R
HOUSTON HOBBY  SUNNY     66  51  58 CALM      30.16R
GALVESTON      SUNNY     70  49  47 NE7       30.16S
COLLEGE STAT   SUNNY     62  51  67 S7        30.17R
CONROE         SUNNY     62  56  80 CALM      30.16R
HUNTSVILLE     SUNNY     62  52  69 CALM      30.16R
LUFKIN         SUNNY     60  53  77 SW3       30.13S
SHREVEPORT     SUNNY     62  50  64 SW6       30.12S
MONROE         SUNNY     61  50  67 NW8       30.12S
NATCHEZ MS     SUNNY     59  50  72 N9        30.13R
BATON ROUGE    MOSUNNY   62  53  72 NW12G20   30.10R
N.O. INTL ARPT PTSUNNY   64  59  83 NW13      30.09R
SLIDELL        PTSUNNY   63  58  83 NW10      30.07S
$$

MARINE REPORTS

STATION/POSITION TIME  SKY/WX   TEMP    WIND        PRES    VSBY
                                AIR SEA DIR/SP/G
                 (UTC)          (F)     (DEG/KT/KT) (MB)    (MI)
BUOY 30 S HIGH I 1350            66 78   10/ 10/ 14 1020.8
WVE H/P(F/S)=  3/ 4

SEA RIM ST PARK  1500            63     320/  3/  4 1021.3R
PORT ARTHUR      1442            64 74   10/  4/  6 1020.7R
SABINE PASS N    1442            65 75   10/ 10/ 11 1022.0R
TEXAS POINT      NOT AVBL
CALCASIEU PASS   1442            63 72   30/ 10/ 13 1018.9R
LK CHARLES BEACH 1442            61 76              1019.8R
MARSH ISLAND     NOT AVBL
FRESH WATER LOCK 1442            61 72  310/ 10/ 13 1019.8R
AMERADA PASS     1448            62 71  320/  8/ 11 1019.3R
$$




USA.gov is the U.S. government's official web portal to all federal, state and local government web resources and services.